Time,TemperatureF,DewpointF,PressureIn,WindDirection,WindDirectionDegrees,WindSpeedMPH,WindSpeedGustMPH,Humidity,HourlyPrecipIn,Conditions,Clouds,dailyrainin,SoftwareType,DateUTC
2013-03-02 00:01:00,48.0,36.0,30.32,SW,236,0.0,0.0,64,0.00,,,0.00,,2013-03-02 08:01:00,
2013-03-02 00:11:00,48.0,36.0,30.32,SW,236,0.0,0.0,64,0.00,,,0.00,,2013-03-02 08:11:00,
2013-03-02 00:21:00,48.0,37.0,30.32,SW,236,0.0,0.0,65,0.00,,,0.00,,2013-03-02 08:21:00,
2013-03-02 00:32:00,48.0,37.0,30.32,SW,236,0.0,0.0,66,0.00,,,0.00,,2013-03-02 08:32:00,
2013-03-02 00:42:00,48.0,37.0,30.32,SW,236,0.0,0.0,66,0.00,,,0.00,,2013-03-02 08:42:00,
2013-03-02 00:52:00,48.0,38.0,30.32,SW,236,0.0,0.0,67,0.00,,,0.00,,2013-03-02 08:52:00,
2013-03-02 01:01:00,48.0,38.0,30.29,SW,236,0.0,0.0,68,0.00,,,0.00,,2013-03-02 09:01:00,
2013-03-02 01:11:00,47.0,37.0,30.32,SW,236,0.0,0.0,69,0.00,,,0.00,,2013-03-02 09:11:00,
2013-03-02 01:21:00,47.0,37.0,30.32,SW,236,0.0,0.0,69,0.00,,,0.00,,2013-03-02 09:21:00,
2013-03-02 01:31:00,47.0,38.0,30.29,SW,236,0.0,0.0,70,0.00,,,0.00,,2013-03-02 09:31:00,
2013-03-02 01:42:00,47.0,38.0,30.29,SW,236,0.0,0.0,70,0.00,,,0.00,,2013-03-02 09:42:00,
2013-03-02 01:52:00,47.0,38.0,30.29,SW,236,0.0,0.0,71,0.00,,,0.00,,2013-03-02 09:52:00,
2013-03-02 02:01:00,48.0,39.0,30.29,SW,236,0.0,0.0,72,0.00,,,0.00,,2013-03-02 10:01:00,
2013-03-02 02:12:00,48.0,39.0,30.29,SW,236,0.0,0.0,72,0.00,,,0.00,,2013-03-02 10:12:00,
2013-03-02 02:21:00,48.0,40.0,30.29,SW,236,0.0,0.0,73,0.00,,,0.00,,2013-03-02 10:21:00,
2013-03-02 02:31:00,48.0,40.0,30.29,SW,236,0.0,0.0,73,0.00,,,0.00,,2013-03-02 10:31:00,
2013-03-02 02:42:00,48.0,40.0,30.29,SW,236,0.0,0.0,73,0.00,,,0.00,,2013-03-02 10:42:00,
2013-03-02 02:52:00,48.0,40.0,30.29,SW,236,0.0,0.0,74,0.00,,,0.00,,2013-03-02 10:52:00,
2013-03-02 03:01:00,47.0,39.0,30.26,SW,236,0.0,0.0,74,0.00,,,0.00,,2013-03-02 11:01:00,
2013-03-02 03:11:00,47.0,39.0,30.26,SW,236,0.0,0.0,74,0.00,,,0.00,,2013-03-02 11:11:00,
2013-03-02 03:21:00,47.0,39.0,30.26,SW,236,0.0,0.0,74,0.00,,,0.00,,2013-03-02 11:21:00,
2013-03-02 03:31:00,47.0,39.0,30.26,SW,236,0.0,0.0,75,0.00,,,0.00,,2013-03-02 11:31:00,
2013-03-02 03:41:00,47.0,39.0,30.26,SW,236,0.0,0.0,75,0.00,,,0.00,,2013-03-02 11:41:00,
2013-03-02 03:52:00,47.0,39.0,30.26,SW,236,0.0,0.0,75,0.00,,,0.00,,2013-03-02 11:52:00,
2013-03-02 04:02:00,47.0,40.0,30.26,SW,236,0.0,0.0,76,0.00,,,0.00,,2013-03-02 12:02:00,
2013-03-02 04:11:00,47.0,40.0,30.26,SW,236,0.0,0.0,76,0.00,,,0.00,,2013-03-02 12:11:00,
2013-03-02 04:21:00,47.0,40.0,30.26,SW,236,0.0,0.0,76,0.00,,,0.00,,2013-03-02 12:21:00,
2013-03-02 04:32:00,48.0,41.0,30.26,SW,236,0.0,0.0,77,0.00,,,0.00,,2013-03-02 12:32:00,
2013-03-02 04:42:00,48.0,41.0,30.26,SW,236,0.0,0.0,77,0.00,,,0.00,,2013-03-02 12:42:00,
2013-03-02 04:53:00,47.0,40.0,30.26,SW,236,0.0,0.0,77,0.00,,,0.00,,2013-03-02 12:53:00,
2013-03-02 05:01:00,47.0,40.0,30.26,SW,236,0.0,0.0,77,0.00,,,0.00,,2013-03-02 13:01:00,
2013-03-02 05:11:00,47.0,40.0,30.26,SW,236,0.0,0.0,77,0.00,,,0.00,,2013-03-02 13:11:00,
2013-03-02 05:21:00,47.0,40.0,30.26,SW,236,0.0,0.0,77,0.00,,,0.00,,2013-03-02 13:21:00,
2013-03-02 05:31:00,47.0,40.0,30.26,SW,236,0.0,0.0,77,0.00,,,0.00,,2013-03-02 13:31:00,
2013-03-02 05:41:00,47.0,40.0,30.26,SW,236,0.0,0.0,77,0.00,,,0.00,,2013-03-02 13:41:00,
2013-03-02 05:52:00,47.0,41.0,30.26,SW,236,0.0,0.0,78,0.00,,,0.00,,2013-03-02 13:52:00,
2013-03-02 06:01:00,47.0,41.0,30.26,SW,236,0.0,0.0,78,0.00,,,0.00,,2013-03-02 14:01:00,
2013-03-02 06:11:00,47.0,41.0,30.26,SW,236,0.0,0.0,78,0.00,,,0.00,,2013-03-02 14:11:00,
2013-03-02 06:21:00,47.0,41.0,30.26,SW,236,0.0,0.0,79,0.00,,,0.00,,2013-03-02 14:21:00,
2013-03-02 06:31:00,47.0,41.0,30.26,SW,236,0.0,0.0,79,0.00,,,0.00,,2013-03-02 14:31:00,
2013-03-02 06:41:00,47.0,41.0,30.26,SW,236,0.0,0.0,79,0.00,,,0.00,,2013-03-02 14:41:00,
2013-03-02 06:52:00,47.0,41.0,30.26,SW,236,0.0,0.0,79,0.00,,,0.00,,2013-03-02 14:52:00,
2013-03-02 07:01:00,47.0,41.0,30.26,SW,236,0.0,0.0,80,0.00,,,0.00,,2013-03-02 15:01:00,
2013-03-02 07:11:00,47.0,41.0,30.26,SW,236,0.0,0.0,80,0.00,,,0.00,,2013-03-02 15:11:00,
2013-03-02 07:21:00,46.0,40.0,30.26,SW,236,0.0,0.0,80,0.00,,,0.00,,2013-03-02 15:21:00,
2013-03-02 07:31:00,46.0,40.0,30.26,SW,236,0.0,0.0,80,0.00,,,0.00,,2013-03-02 15:31:00,
2013-03-02 07:41:00,46.0,40.0,30.26,SW,236,0.0,0.0,80,0.00,,,0.00,,2013-03-02 15:41:00,
2013-03-02 07:51:00,47.0,41.0,30.26,SW,236,0.0,0.0,80,0.00,,,0.00,,2013-03-02 15:51:00,
2013-03-02 08:01:00,47.0,42.0,30.26,SW,236,0.0,0.0,82,0.00,,,0.00,,2013-03-02 16:01:00,
2013-03-02 08:11:00,47.0,42.0,30.26,SW,236,0.0,0.0,82,0.00,,,0.00,,2013-03-02 16:11:00,
2013-03-02 08:21:00,49.0,44.0,30.26,SW,236,0.0,0.0,83,0.00,,,0.00,,2013-03-02 16:21:00,
2013-03-02 08:31:00,51.0,46.0,30.26,NNE,28,0.0,3.0,83,0.00,,,0.00,,2013-03-02 16:31:00,
2013-03-02 08:41:00,51.0,46.0,30.26,NNE,28,0.0,3.0,83,0.00,,,0.00,,2013-03-02 16:41:00,
2013-03-02 08:52:00,53.0,47.0,30.26,NNE,28,0.0,0.0,80,0.00,,,0.00,,2013-03-02 16:52:00,
2013-03-02 09:01:00,54.0,46.0,30.26,NNE,28,0.0,0.0,75,0.00,,,0.00,,2013-03-02 17:01:00,
2013-03-02 09:11:00,54.0,46.0,30.26,NNE,28,0.0,0.0,75,0.00,,,0.00,,2013-03-02 17:11:00,
2013-03-02 09:21:00,55.0,46.0,30.26,NNE,28,2.0,0.0,71,0.00,,,0.00,,2013-03-02 17:21:00,
2013-03-02 09:31:00,57.0,45.0,30.25,NE,51,0.0,4.0,64,0.00,,,0.00,,2013-03-02 17:31:00,
2013-03-02 09:41:00,57.0,45.0,30.25,NE,51,0.0,4.0,64,0.00,,,0.00,,2013-03-02 17:41:00,
2013-03-02 09:52:00,59.0,40.0,30.25,NNE,20,3.0,4.0,50,0.00,,,0.00,,2013-03-02 17:52:00,
2013-03-02 10:01:00,61.0,39.0,30.25,WNW,284,0.0,6.0,44,0.00,,,0.00,,2013-03-02 18:01:00,
2013-03-02 10:21:00,62.0,38.0,30.25,NNE,26,0.0,6.0,41,0.00,,,0.00,,2013-03-02 18:21:00,
2013-03-02 10:31:00,64.0,37.0,30.25,NNE,20,3.0,8.0,36,0.00,,,0.00,,2013-03-02 18:31:00,
2013-03-02 10:51:00,66.0,38.0,30.25,WNW,285,0.0,6.0,35,0.00,,,0.00,,2013-03-02 18:51:00,
2013-03-02 11:01:00,67.0,37.0,30.25,WNW,301,3.0,6.0,33,0.00,,,0.00,,2013-03-02 19:01:00,
2013-03-02 11:21:00,68.0,38.0,30.25,SSW,196,2.0,6.0,33,0.00,,,0.00,,2013-03-02 19:21:00,
2013-03-02 11:31:00,70.0,39.0,30.22,West,271,0.0,5.0,32,0.00,,,0.00,,2013-03-02 19:31:00,
2013-03-02 11:52:00,70.0,35.0,30.22,NW,324,4.0,6.0,28,0.00,,,0.00,,2013-03-02 19:52:00,
2013-03-02 12:01:00,70.0,36.0,30.22,NNE,23,4.0,8.0,29,0.00,,,0.00,,2013-03-02 20:01:00,
2013-03-02 12:21:00,69.0,36.0,30.22,NNW,338,3.0,6.0,30,0.00,,,0.00,,2013-03-02 20:21:00,
2013-03-02 12:31:00,68.0,37.0,30.22,WNW,297,2.0,6.0,32,0.00,,,0.00,,2013-03-02 20:31:00,
2013-03-02 12:52:00,69.0,38.0,30.19,NE,56,3.0,7.0,32,0.00,,,0.00,,2013-03-02 20:52:00,
2013-03-02 13:02:00,70.0,36.0,30.19,West,281,2.0,6.0,29,0.00,,,0.00,,2013-03-02 21:02:00,
2013-03-02 13:21:00,70.0,37.0,30.19,North,2,3.0,5.0,30,0.00,,,0.00,,2013-03-02 21:21:00,
2013-03-02 13:31:00,70.0,36.0,30.19,NNW,333,3.0,5.0,29,0.00,,,0.00,,2013-03-02 21:31:00,
2013-03-02 13:52:00,70.0,36.0,30.19,NW,326,0.0,4.0,29,0.00,,,0.00,,2013-03-02 21:52:00,
2013-03-02 14:01:00,70.0,35.0,30.19,West,281,2.0,4.0,28,0.00,,,0.00,,2013-03-02 22:01:00,
2013-03-02 14:21:00,70.0,36.0,30.16,NNE,19,0.0,4.0,29,0.00,,,0.00,,2013-03-02 22:21:00,
2013-03-02 14:31:00,71.0,37.0,30.16,NNW,341,2.0,5.0,29,0.00,,,0.00,,2013-03-02 22:31:00,
2013-03-02 14:51:00,71.0,37.0,30.16,West,265,4.0,4.0,29,0.00,,,0.00,,2013-03-02 22:51:00,
2013-03-02 15:01:00,72.0,38.0,30.16,NW,325,0.0,5.0,29,0.00,,,0.00,,2013-03-02 23:01:00,
2013-03-02 15:11:00,73.0,37.0,30.13,NNW,341,0.0,4.0,27,0.00,,,0.00,,2013-03-02 23:11:00,
2013-03-02 15:21:00,73.0,37.0,30.13,NNW,341,0.0,4.0,27,0.00,,,0.00,,2013-03-02 23:21:00,
2013-03-02 15:31:00,72.0,37.0,30.13,WSW,250,2.0,4.0,28,0.00,,,0.00,,2013-03-02 23:31:00,
2013-03-02 15:52:00,71.0,39.0,30.13,North,353,0.0,4.0,31,0.00,,,0.00,,2013-03-02 23:52:00,
2013-03-02 16:02:00,70.0,39.0,30.13,NNW,327,0.0,5.0,32,0.00,,,0.00,,2013-03-03 00:02:00,
2013-03-02 16:22:00,69.0,39.0,30.13,WNW,284,0.0,4.0,33,0.00,,,0.00,,2013-03-03 00:22:00,
2013-03-02 16:31:00,69.0,39.0,30.13,WNW,289,0.0,4.0,34,0.00,,,0.00,,2013-03-03 00:31:00,
2013-03-02 16:52:00,68.0,39.0,30.13,NNW,327,0.0,3.0,34,0.00,,,0.00,,2013-03-03 00:52:00,
2013-03-02 17:01:00,68.0,39.0,30.13,NW,315,0.0,3.0,35,0.00,,,0.00,,2013-03-03 01:01:00,
2013-03-02 17:21:00,67.0,39.0,30.13,SSW,210,0.0,4.0,36,0.00,,,0.00,,2013-03-03 01:21:00,
2013-03-02 17:31:00,67.0,39.0,30.13,SSW,210,0.0,0.0,36,0.00,,,0.00,,2013-03-03 01:31:00,
2013-03-02 17:52:00,66.0,40.0,30.13,SSW,210,0.0,0.0,38,0.00,,,0.00,,2013-03-03 01:52:00,
2013-03-02 18:01:00,65.0,42.0,30.13,SW,223,0.0,4.0,43,0.00,,,0.00,,2013-03-03 02:01:00,
2013-03-02 18:11:00,65.0,42.0,30.13,SW,223,0.0,4.0,43,0.00,,,0.00,,2013-03-03 02:11:00,
2013-03-02 18:21:00,64.0,42.0,30.13,SW,223,0.0,3.0,44,0.00,,,0.00,,2013-03-03 02:21:00,
2013-03-02 18:31:00,64.0,41.0,30.13,SW,217,2.0,5.0,43,0.00,,,0.00,,2013-03-03 02:31:00,
2013-03-02 18:52:00,64.0,40.0,30.13,SW,217,0.0,3.0,42,0.00,,,0.00,,2013-03-03 02:52:00,
2013-03-02 19:01:00,63.0,40.0,30.13,SW,218,0.0,0.0,43,0.00,,,0.00,,2013-03-03 03:01:00,
2013-03-02 19:21:00,63.0,40.0,30.16,SW,218,0.0,3.0,43,0.00,,,0.00,,2013-03-03 03:21:00,
2013-03-02 19:31:00,62.0,40.0,30.13,SW,218,0.0,0.0,44,0.00,,,0.00,,2013-03-03 03:31:00,
2013-03-02 19:52:00,62.0,40.0,30.13,SW,217,0.0,2.0,45,0.00,,,0.00,,2013-03-03 03:52:00,
2013-03-02 20:01:00,61.0,40.0,30.13,SW,218,0.0,0.0,45,0.00,,,0.00,,2013-03-03 04:01:00,
2013-03-02 20:21:00,61.0,40.0,30.13,SW,218,0.0,0.0,46,0.00,,,0.00,,2013-03-03 04:21:00,
2013-03-02 20:31:00,60.0,40.0,30.14,SW,218,0.0,0.0,47,0.00,,,0.00,,2013-03-03 04:31:00,
2013-03-02 20:51:00,60.0,39.0,30.14,SW,218,0.0,0.0,46,0.00,,,0.00,,2013-03-03 04:51:00,
2013-03-02 21:01:00,60.0,39.0,30.14,SW,218,0.0,0.0,46,0.00,,,0.00,,2013-03-03 05:01:00,
2013-03-02 21:21:00,60.0,39.0,30.14,ENE,61,0.0,0.0,45,0.00,,,0.00,,2013-03-03 05:21:00,
2013-03-02 21:32:00,60.0,39.0,30.14,SSE,160,0.0,0.0,45,0.00,,,0.00,,2013-03-03 05:32:00,
2013-03-02 21:42:00,60.0,39.0,30.14,SSE,160,0.0,0.0,45,0.00,,,0.00,,2013-03-03 05:42:00,
2013-03-02 21:52:00,59.0,37.0,30.14,SW,221,0.0,3.0,44,0.00,,,0.00,,2013-03-03 05:52:00,
2013-03-02 22:01:00,59.0,38.0,30.16,SW,221,0.0,0.0,45,0.00,,,0.00,,2013-03-03 06:01:00,
2013-03-02 22:11:00,59.0,38.0,30.16,SW,221,0.0,0.0,45,0.00,,,0.00,,2013-03-03 06:11:00,
2013-03-02 22:21:00,58.0,37.0,30.16,SW,221,0.0,3.0,46,0.00,,,0.00,,2013-03-03 06:21:00,
2013-03-02 22:31:00,58.0,36.0,30.16,SW,221,0.0,0.0,44,0.00,,,0.00,,2013-03-03 06:31:00,
2013-03-02 22:51:00,58.0,37.0,30.16,SW,221,0.0,0.0,45,0.00,,,0.00,,2013-03-03 06:51:00,
2013-03-02 23:01:00,57.0,36.0,30.16,SW,221,0.0,3.0,45,0.00,,,0.00,,2013-03-03 07:01:00,
2013-03-02 23:21:00,57.0,36.0,30.14,SW,221,0.0,0.0,46,0.00,,,0.00,,2013-03-03 07:21:00,
2013-03-02 23:31:00,57.0,37.0,30.16,SW,221,0.0,0.0,47,0.00,,,0.00,,2013-03-03 07:31:00,
2013-03-02 23:42:00,57.0,37.0,30.16,SW,221,0.0,0.0,47,0.00,,,0.00,,2013-03-03 07:42:00,
2013-03-02 23:52:00,57.0,37.0,30.16,SW,221,0.0,3.0,47,0.00,,,0.00,,2013-03-03 07:52:00,